Regional Weather Roundup
Issued by NWS

Home | Current Version | Previous Version | Text Only | Print | Product List | Glossary On
Versions: 1 2 3 4 5 6 7 8 9 10 11 12 13 14 15 16 17 18 19 20 21 22 23 24 25 26 27 28 29 30 31 32 33 34 35 36 37 38 39 40 41 42 43 44 45 46 47 48 49 50
000
ASUS44 KLUB 300401
RWRTX
WEST TEXAS WEATHER ROUNDUP
NATIONAL WEATHER SERVICE LUBBOCK TX
1100 PM CDT SUN MAY 29 2016

NOTE: "FAIR" INDICATES FEW OR NO CLOUDS BELOW 12,000 FEET WITH NO
SIGNIFICANT WEATHER AND/OR OBSTRUCTIONS TO VISIBILITY.

TXZ004-006>008-010-012-014-016-OKZ002-300500-
TEXAS PANHANDLE/OKLAHOMA PANHANDLE

CITY           SKY/WX    TMP DP  RH WIND       PRES   REMARKS
AMARILLO       CLOUDY    55  53  93 SE24G32   30.11F
BORGER         CLOUDY    62  50  64 S20G26    30.11F
CANADIAN       CLOUDY    61  55  78 SW14G20   30.11S
DALHART        CLOUDY    57  50  77 SE15      30.15F
DUMAS          CLOUDY    56  50  81 SE14      30.13F
GUYMON         CLOUDY    60  50  69 S10       30.10R
HEREFORD       CLOUDY    56  55  97 SE22G35   30.10F
$$

TXZ026-029-035-045-048-300500-
SOUTHERN PANHANDLE/SOUTH PLAINS/ROLLING PLAINS

CITY           SKY/WX    TMP DP  RH WIND       PRES   REMARKS
CHILDRESS      LGT RAIN  63  59  87 NW13      30.18R
LUBBOCK        CLOUDY    59  54  83 E24G40    30.14F
SNYDER         TSTM      59  58  97 N25G35    30.16R
$$

TXZ052-054-060>062-072-078-127-140-154-169-300500-
PERMIAN BASIN/CONCHO VALLEY/BIG COUNTRY/EDWARDS PLATEAU

CITY           SKY/WX    TMP DP  RH WIND       PRES   REMARKS
ABILENE        RAIN      65  65 100 N21G32    30.00F FOG
BIG SPRING     CLOUDY    62  55  77 N30G41    30.14R
JUNCTION       CLEAR     77  67  71 S6        30.03R
MIDLAND        CLOUDY    76  64  66 S7        30.05R
ODESSA         CLEAR     75  64  68 S10       30.06R
SAN ANGELO     PTCLDY    77  67  71 S8        30.01R
$$

TXZ055-058-074-075-080-082-300500-
FAR WEST/SOUTHWEST MOUNTAINS/TRANS PECOS

CITY           SKY/WX    TMP DP  RH WIND       PRES   REMARKS
ALPINE         PTCLDY    71  63  74 S8        30.18R
DRYDEN           N/A     76  69  79 NE5       30.00R
EL PASO        PTCLDY    82  35  18 S8        30.01R
MARFA          CLOUDY    68  60  75 SE5       30.18R
PRESIDIO       MOCLDY    83  61  47 NE7       30.03R
$$

TXZ014-016-019-021>030-083-300500
TEXAS TECH WEST TEXAS MESONET/TEXAS PANHANDLE/NORTHERN SOUTH PLAINS

CITY           SKY/WX    TMP DP  RH WIND       PRES   REMARKS
ABERNATHY 5ENE   N/A     57  54  89 E29G38    30.16F
AMARILLO 9NNE    N/A     57  54  87 SE20      30.11F
AMHERST 1NE      N/A     56  53  91 E25G35    30.15R
BOOTLEG 11WNW    N/A     53  51  94 SE18      30.16S
CANADIAN 6E      N/A     60  53  77 SW6       30.10R
CAPROCK CYN SP   N/A     57  56  97 NW3       30.25F
CHILDRESS 2NNE   N/A     61  57  88 N7        30.14F
CLARENDON 2WSW   N/A     57  55  92 S16       30.20S
DIMMITT 2NE      N/A     55  53  94 E22G29    30.13F
FLOYDADA 2NNE    N/A     56  55  96 NE18      30.21F
FRIONA 2NE       N/A     55  52  90 E22       30.14R
GOODLETT 3W      N/A     63  58  82 NE9       30.11F
HART 3N          N/A     55  53  92 E23G30    30.14R
HEREFORD 2NW     N/A     56  51  83 SE16G23   30.13F
MCLEAN 1E        N/A     58  54  86 S14       30.16F
MEMPHIS 1NE    LGT RAIN  60  58  94 SW8       30.20R
MULESHOE 2SSW    N/A     56  53  90 E15       30.16R
OLTON 6S         N/A     56  53  90 E22       30.15R
PALO DURO SP     N/A     56  54  94 SE13G20   30.13F
PAMPA 2E         N/A     58  52  80 S21       30.13F
PLAINVIEW 1S     N/A     57  55  93 E18G26    30.14F
SILVERTON 7ESE   N/A     56  55  95 E7        30.23F
TULIA 2ENE       N/A     55  54  96 E21       30.17F
TURKEY 2WSW      N/A     58  57  97 W6        30.26R
$$

TXZ033>036-039>041-045>048-300500
TEXAS TECH WEST TEXAS MESONET/SOUTH PLAINS

CITY           SKY/WX    TMP DP  RH WIND       PRES   REMARKS
AIKEN 3WSW       N/A     57  55  93 E28       30.12F
ANDREWS 2NE      N/A     65  55  70 NE21G28   30.17R
ANTON 6SSW       N/A     58  54  87 E28G33    30.15R
BROWNFIELD 2S    N/A     60  54  81 NE29G38   30.17S
DENVR CTY 7WNW   N/A     58  51  77 NE26G36   30.17R
GAIL 2ESE      RAIN      61  57  89 N16G22    30.16S
LAMESA 2SE       N/A     60  56  87 NE20G31   30.16S
LEVELLAND 4S     N/A     58  52  80 E26G35    30.16R
MORTON 1ENE      N/A     57  53  86 E21G26    30.16R
ODONNELL 1N      N/A     58  54  85 NE26      30.18R
PLAINS 3N        N/A     59  52  76 E29G38    30.16S
RALLS 1SE        N/A     58  55  87 NE22G29   30.22F
REESE CENTER     N/A     58  52  81 E29G37    30.15F
SEAGRAVES 1SW    N/A     60  54  79 NE21G30   30.16S
SEMINOLE 2NNE    N/A     60  53  78 NE29G37   30.16R
SLATON 2NE       N/A     60  54  82 NE24G31   30.18F
SNYDER 3E        N/A     59  58  97 N29G37    30.15R
SUNDOWN 8SW      N/A     59  52  78 E24G35    30.16S
TAHOKA 3NNE      N/A     60  55  84 NE21      30.18F
WOLFFORTH 6SSW   N/A     60  53  78 E25G32    30.17F
$$

TXZ031-032-036>038-042>044-300500-
TEXAS TECH WEST TEXAS MESONET/ROLLING PLAINS

CITY           SKY/WX    TMP DP  RH WIND       PRES   REMARKS
FLUVANNA 3WNW    N/A     59  56  88 N22G33    30.16F
GRAHAM 5SSW      N/A     58  56  93 NE21G29   30.19F
GUTHRIE 10WSW  LGT RAIN  61  58  89 NW16G22   30.21R
HASKELL 1NW    LGT RAIN  63  61  93 NE17      30.09R
JAYTON 1SSE    LGT RAIN  62  58  87 W16G22    30.22R
KNOX CITY 3NW    N/A     64  59  84 NW12      30.13R
LK A HENRY 1NW   N/A     60  57  89 NE17G23   30.17R
NORTHFIELD 1S  LGT RAIN  60  58  94 SW13G18   30.26R
ODELL 4ENE       N/A     64  61  91 N15       30.11F
PADUCAH 10SW   LGT RAIN  61  58  90 N12       30.21R
POST 1NE         N/A     60  56  88 N15G21    30.20F
RRING SPRGS 3N RAIN      58  57  96 NW16G22   30.30R
SPUR 1W        LGT RAIN  60  56  88 N20G26    30.25R
WEINERT 2NNE     N/A     63  61  91 N9        30.08R
WHITE RVR 6NE    N/A     60  55  84 N23G29    30.21R
$$

TXZ052-054-060>062-072-078-127-140-154-169-300500-
TEXAS TECH WEST TEXAS MESONET/PERMIAN BASIN/
CONCHO VALLEY/BIG COUNTRY/EDWARDS PLATEAU

CITY           SKY/WX    TMP DP  RH WIND       PRES   REMARKS
COYANOSA 2N      N/A     76  65  68 SE10      30.04R
JUNCTION 1SSW    N/A     77  68  75 S7        30.05R
MERTZON 3NNE     N/A     75  67  76 S6        30.04F
SAN ANGELO 7NW   N/A     78  65  63 SW6       30.03R
ST LAWRNCE 5SW   N/A     74  65  72 S6        30.06S
SWEETWATR 11SW   N/A     63  60  92 N21       30.11R
WALL 1E          N/A     77  65  66 S8        30.04R
$$

TXZ055-058-074-075-080-082-300500-
TEXAS TECH WEST TEXAS MESONET/FAR WEST/SOUTHWEST MOUNTAINS/TRANS PECOS

CITY           SKY/WX    TMP DP  RH WIND       PRES   REMARKS
PRSMN GAP BBNP   N/A     76  52  43 N8        30.04S
GUADLPE MTN NP   N/A     66  48  52 NE7       30.20R
$$




USA.gov is the U.S. government's official web portal to all federal, state and local government web resources and services.